| time (UTC) | temp F | wind direction | speed MPH | gust MPH | rain 1hr in | rain 24hr in | rain mn in | humidity % | barometer mb |
| 20260504050349 | 43 | 300 | 0.0 | 0.0 | 0.00 | 0.00 | 0.00 | 71 | 1014.4 |
| 20260504045846 | 43 | 300 | 0.0 | 0.0 | 0.00 | 0.00 | 0.00 | 70 | 1014.4 |
| 20260504045350 | 44 | 300 | 0.0 | 0.0 | 0.00 | 0.00 | 0.00 | 70 | 1014.4 |
| 20260504045346 | 44 | 300 | 0.0 | 0.0 | 0.00 | 0.00 | 0.00 | 70 | 1014.4 |
| 20260504044346 | 44 | 300 | 0.0 | 0.0 | 0.00 | 0.00 | 0.00 | 69 | 1014.4 |
| 20260504043844 | 44 | 300 | 0.0 | 0.0 | 0.00 | 0.00 | 0.00 | 67 | 1014.3 |
| 20260504043344 | 45 | 300 | 0.0 | 0.0 | 0.00 | 0.00 | 0.00 | 67 | 1014.2 |
| 20260504042844 | 45 | 300 | 0.0 | 0.0 | 0.00 | 0.00 | 0.00 | 67 | 1014.1 |
| 20260504042342 | 45 | 300 | 0.0 | 0.0 | 0.00 | 0.00 | 0.00 | 66 | 1014.2 |
| 20260504041841 | 45 | 300 | 0.0 | 0.0 | 0.00 | 0.00 | 0.00 | 64 | 1014.2 |
| 20260504041346 | 45 | 300 | 0.0 | 0.0 | 0.00 | 0.00 | 0.00 | 66 | 1014.1 |
| 20260504041342 | 45 | 300 | 0.0 | 0.0 | 0.00 | 0.00 | 0.00 | 64 | 1014.2 |
| 20260504040842 | 45 | 300 | 0.0 | 0.0 | 0.00 | 0.00 | 0.00 | 65 | 1014.2 |
| 20260504040446 | 45 | 300 | 0.0 | 0.0 | 0.00 | 0.00 | 0.00 | 67 | 1014.0 |
| 20260504035341 | 45 | 300 | 0.0 | 0.0 | 0.00 | 0.00 | 0.00 | 66 | 1014.0 |
| 20260504034840 | 45 | 300 | 0.0 | 0.0 | 0.00 | 0.00 | 0.00 | 67 | 1014.0 |
| 20260504034340 | 45 | 300 | 0.0 | 0.0 | 0.00 | 0.00 | 0.00 | 67 | 1014.0 |
| 20260504033838 | 45 | 338 | 0.0 | 0.0 | 0.00 | 0.00 | 0.00 | 67 | 1013.9 |
| 20260504033338 | 45 | 341 | 0.0 | 0.0 | 0.00 | 0.00 | 0.00 | 68 | 1014.0 |
| 20260504032836 | 45 | 342 | 0.0 | 0.0 | 0.00 | 0.00 | 0.00 | 67 | 1013.9 |
| 20260504032335 | 44 | 342 | 0.0 | 0.0 | 0.00 | 0.00 | 0.00 | 69 | 1013.9 |
| 20260504031834 | 44 | 342 | 0.0 | 0.0 | 0.00 | 0.00 | 0.00 | 70 | 1013.9 |
| 20260504031333 | 44 | 342 | 0.0 | 0.0 | 0.00 | 0.00 | 0.00 | 69 | 1013.9 |
| 20260504030833 | 44 | 342 | 0.0 | 0.0 | 0.00 | 0.00 | 0.00 | 70 | 1013.8 |
| 20260504030332 | 44 | 342 | 0.0 | 0.0 | 0.00 | 0.00 | 0.00 | 71 | 1013.8 |
| 20260504025831 | 44 | 342 | 0.0 | 0.0 | 0.00 | 0.00 | 0.00 | 71 | 1013.8 |
| 20260504025329 | 44 | 342 | 0.0 | 0.0 | 0.00 | 0.00 | 0.00 | 71 | 1013.7 |
| 20260504024834 | 45 | 342 | 0.0 | 0.0 | 0.00 | 0.00 | 0.00 | 69 | 1013.8 |
| 20260504024830 | 45 | 342 | 0.0 | 0.0 | 0.00 | 0.00 | 0.00 | 70 | 1013.8 |
| 20260504023830 | 45 | 342 | 0.0 | 0.0 | 0.00 | 0.00 | 0.00 | 69 | 1013.8 |
| 20260504023330 | 45 | 342 | 0.0 | 0.0 | 0.00 | 0.00 | 0.00 | 68 | 1013.8 |
| 20260504022829 | 45 | 342 | 0.0 | 0.0 | 0.00 | 0.00 | 0.00 | 69 | 1013.8 |
| 20260504022334 | 45 | 342 | 0.0 | 0.0 | 0.00 | 0.00 | 0.00 | 69 | 1013.7 |
| 20260504022330 | 45 | 342 | 0.0 | 0.0 | 0.00 | 0.00 | 0.00 | 69 | 1013.7 |
| 20260504021829 | 45 | 342 | 0.0 | 0.0 | 0.00 | 0.00 | 0.00 | 69 | 1013.7 |
| 20260504020830 | 45 | 342 | 0.0 | 0.0 | 0.00 | 0.00 | 0.00 | 69 | 1013.6 |
| 20260504020329 | 45 | 342 | 0.0 | 0.0 | 0.00 | 0.00 | 0.00 | 69 | 1013.6 |
| 20260504015830 | 45 | 342 | 0.0 | 0.0 | 0.00 | 0.00 | 0.00 | 68 | 1013.6 |
| 20260504015333 | 46 | 342 | 0.0 | 0.0 | 0.00 | 0.00 | 0.00 | 67 | 1013.5 |
| 20260504015329 | 45 | 342 | 0.0 | 0.0 | 0.00 | 0.00 | 0.00 | 68 | 1013.6 |
| 20260504014334 | 46 | 342 | 0.0 | 0.0 | 0.00 | 0.00 | 0.00 | 66 | 1013.5 |
| 20260504014330 | 46 | 342 | 0.0 | 0.0 | 0.00 | 0.00 | 0.00 | 67 | 1013.5 |
| 20260504013330 | 46 | 342 | 0.0 | 0.0 | 0.00 | 0.00 | 0.00 | 67 | 1013.5 |
| 20260504012829 | 46 | 342 | 0.0 | 0.0 | 0.00 | 0.00 | 0.00 | 66 | 1013.3 |
| 20260504012329 | 46 | 342 | 0.0 | 0.0 | 0.00 | 0.00 | 0.00 | 66 | 1013.4 |
| 20260504011830 | 47 | 342 | 0.0 | 0.0 | 0.00 | 0.00 | 0.00 | 66 | 1013.3 |
| 20260504011333 | 47 | 342 | 0.0 | 0.0 | 0.00 | 0.00 | 0.00 | 65 | 1013.2 |
| 20260504011329 | 47 | 342 | 0.0 | 0.0 | 0.00 | 0.00 | 0.00 | 65 | 1013.2 |
| 20260504010330 | 47 | 342 | 0.0 | 0.0 | 0.00 | 0.00 | 0.00 | 64 | 1013.2 |
| 20260504005829 | 48 | 342 | 0.0 | 0.0 | 0.00 | 0.00 | 0.00 | 62 | 1013.2 |
| 20260504005328 | 49 | 342 | 0.0 | 0.0 | 0.00 | 0.00 | 0.00 | 61 | 1013.2 |
| 20260504004825 | 49 | 342 | 0.0 | 0.0 | 0.00 | 0.00 | 0.00 | 60 | 1013.2 |
| 20260504004327 | 51 | 342 | 0.0 | 0.0 | 0.00 | 0.00 | 0.00 | 59 | 1013.1 |
| 20260504004323 | 50 | 342 | 0.0 | 0.0 | 0.00 | 0.00 | 0.00 | 60 | 1013.1 |
| 20260504003928 | 51 | 342 | 0.0 | 0.0 | 0.00 | 0.00 | 0.00 | 56 | 1013.1 |
| 20260504002824 | 52 | 342 | 0.0 | 0.0 | 0.00 | 0.00 | 0.00 | 55 | 1013.1 |
| 20260504002323 | 53 | 342 | 0.0 | 0.0 | 0.00 | 0.00 | 0.00 | 53 | 1013.0 |
| 20260504001821 | 54 | 342 | 0.0 | 0.0 | 0.00 | 0.00 | 0.00 | 50 | 1012.9 |
| 20260504001322 | 55 | 22 | 0.0 | 0.0 | 0.00 | 0.00 | 0.00 | 48 | 1012.9 |
| 20260504000820 | 55 | 22 | 0.0 | 0.0 | 0.00 | 0.00 | 0.00 | 45 | 1012.9 |
| 20260504000319 | 56 | 22 | 0.0 | 0.0 | 0.00 | 0.00 | 0.00 | 43 | 1012.8 |
| 20260503235819 | 57 | 22 | 0.0 | 0.0 | 0.00 | 0.00 | 0.00 | 42 | 1012.8 |
| 20260503235319 | 58 | 22 | 0.0 | 0.0 | 0.00 | 0.00 | 0.00 | 40 | 1012.8 |
| 20260503234819 | 58 | 22 | 0.0 | 0.0 | 0.00 | 0.00 | 0.00 | 37 | 1012.7 |
| 20260503234320 | 59 | 22 | 0.0 | 0.0 | 0.00 | 0.00 | 0.00 | 36 | 1012.6 |
| 20260503233817 | 59 | 22 | 0.0 | 0.0 | 0.00 | 0.00 | 0.00 | 35 | 1012.6 |
| 20260503233317 | 59 | 255 | 0.0 | 0.0 | 0.00 | 0.00 | 0.00 | 34 | 1012.5 |
| 20260503232818 | 60 | 255 | 0.0 | 0.0 | 0.00 | 0.00 | 0.00 | 35 | 1012.5 |
| 20260503232317 | 60 | 245 | 0.0 | 0.0 | 0.00 | 0.00 | 0.00 | 34 | 1012.5 |
| 20260503231817 | 60 | 244 | 0.0 | 0.0 | 0.00 | 0.00 | 0.00 | 33 | 1012.5 |
| 20260503231316 | 61 | 261 | 0.0 | 1.0 | 0.00 | 0.00 | 0.00 | 33 | 1012.6 |
| 20260503230815 | 61 | 244 | 0.0 | 1.0 | 0.00 | 0.00 | 0.00 | 32 | 1012.4 |
| 20260503230319 | 61 | 194 | 0.0 | 0.0 | 0.00 | 0.00 | 0.00 | 32 | 1012.3 |
| 20260503230315 | 61 | 248 | 0.0 | 0.0 | 0.00 | 0.00 | 0.00 | 35 | 1012.3 |
| 20260503225320 | 62 | 272 | 0.0 | 0.0 | 0.00 | 0.00 | 0.00 | 32 | 1012.3 |
| 20260503225316 | 61 | 250 | 0.0 | 0.0 | 0.00 | 0.00 | 0.00 | 33 | 1012.3 |
| 20260503224919 | 62 | 5 | 0.0 | 0.0 | 0.00 | 0.00 | 0.00 | 33 | 1012.4 |
| 20260503224419 | 62 | 305 | 0.0 | 0.0 | 0.00 | 0.00 | 0.00 | 32 | 1012.3 |
| 20260503223313 | 62 | 0 | 0.0 | 0.0 | 0.00 | 0.00 | 0.00 | 33 | 1012.3 |
| 20260503222814 | 62 | 311 | 0.0 | 0.0 | 0.00 | 0.00 | 0.00 | 33 | 1012.5 |
| 20260503222317 | 62 | 287 | 0.0 | 0.0 | 0.00 | 0.00 | 0.00 | 32 | 1012.5 |
| 20260503222313 | 62 | 254 | 0.0 | 0.0 | 0.00 | 0.00 | 0.00 | 33 | 1012.5 |
| 20260503221317 | 62 | 5 | 0.0 | 0.0 | 0.00 | 0.00 | 0.00 | 32 | 1012.5 |
| 20260503221313 | 62 | 5 | 0.0 | 0.0 | 0.00 | 0.00 | 0.00 | 32 | 1012.5 |
| 20260503220917 | 62 | 237 | 0.0 | 1.0 | 0.00 | 0.00 | 0.00 | 32 | 1012.6 |
| 20260503215813 | 62 | 260 | 0.0 | 1.0 | 0.00 | 0.00 | 0.00 | 33 | 1012.6 |
| 20260503215313 | 62 | 302 | 0.0 | 3.0 | 0.00 | 0.00 | 0.00 | 34 | 1012.6 |
| 20260503214812 | 62 | 188 | 0.0 | 3.0 | 0.00 | 0.00 | 0.00 | 32 | 1012.6 |
| 20260503214311 | 62 | 304 | 0.0 | 0.0 | 0.00 | 0.00 | 0.00 | 32 | 1012.5 |
| 20260503213811 | 62 | 5 | 0.0 | 0.0 | 0.00 | 0.00 | 0.00 | 33 | 1012.6 |
| 20260503213310 | 62 | 280 | 0.0 | 0.0 | 0.00 | 0.00 | 0.00 | 34 | 1012.6 |
| 20260503212811 | 62 | 303 | 0.0 | 1.0 | 0.00 | 0.00 | 0.00 | 33 | 1012.6 |
| 20260503212311 | 61 | 344 | 0.0 | 1.0 | 0.00 | 0.00 | 0.00 | 34 | 1012.6 |
| 20260503211817 | 62 | 0 | 0.0 | 0.0 | 0.00 | 0.00 | 0.00 | 33 | 1012.6 |
| 20260503211811 | 61 | 244 | 0.0 | 0.0 | 0.00 | 0.00 | 0.00 | 34 | 1012.5 |
| 20260503211311 | 61 | 274 | 0.0 | 0.0 | 0.00 | 0.00 | 0.00 | 34 | 1012.6 |
| 20260503210311 | 63 | 263 | 0.0 | 0.0 | 0.00 | 0.00 | 0.00 | 31 | 1012.5 |
| 20260503205811 | 63 | 259 | 0.0 | 0.0 | 0.00 | 0.00 | 0.00 | 32 | 1012.6 |
| 20260503205309 | 63 | 246 | 0.0 | 0.0 | 0.00 | 0.00 | 0.00 | 33 | 1012.6 |
| 20260503204808 | 62 | 272 | 0.0 | 0.0 | 0.00 | 0.00 | 0.00 | 33 | 1012.5 |
| 20260503204309 | 62 | 303 | 0.0 | 1.0 | 0.00 | 0.00 | 0.00 | 34 | 1012.6 |
| 20260503203809 | 62 | 305 | 0.0 | 1.0 | 0.00 | 0.00 | 0.00 | 35 | 1012.6 |
| 20260503203308 | 62 | 259 | 0.0 | 0.0 | 0.00 | 0.00 | 0.00 | 33 | 1012.6 |
| 20260503202811 | 62 | 208 | 0.0 | 0.0 | 0.00 | 0.00 | 0.00 | 37 | 1012.7 |
| 20260503202807 | 62 | 344 | 0.0 | 0.0 | 0.00 | 0.00 | 0.00 | 31 | 1012.7 |
| 20260503201811 | 62 | 272 | 0.0 | 0.0 | 0.00 | 0.00 | 0.00 | 34 | 1012.8 |
| 20260503201807 | 62 | 279 | 0.0 | 0.0 | 0.00 | 0.00 | 0.00 | 33 | 1012.7 |
| 20260503201411 | 61 | 317 | 0.0 | 1.0 | 0.00 | 0.00 | 0.00 | 34 | 1013.0 |
| 20260503200303 | 61 | 42 | 0.0 | 1.0 | 0.00 | 0.00 | 0.00 | 36 | 1013.0 |
| 20260503195803 | 61 | 269 | 0.0 | 0.0 | 0.00 | 0.00 | 0.00 | 33 | 1013.1 |
| 20260503195307 | 61 | 5 | 0.0 | 0.0 | 0.00 | 0.00 | 0.00 | 33 | 1013.2 |
| 20260503195304 | 61 | 290 | 0.0 | 0.0 | 0.00 | 0.00 | 0.00 | 38 | 1013.1 |
| 20260503194303 | 61 | 284 | 0.0 | 0.0 | 0.00 | 0.00 | 0.00 | 33 | 1013.1 |
| 20260503193803 | 61 | 344 | 0.0 | 0.0 | 0.00 | 0.00 | 0.00 | 35 | 1013.2 |
| 20260503193307 | 60 | 221 | 0.0 | 0.0 | 0.00 | 0.00 | 0.00 | 34 | 1013.4 |
| 20260503193302 | 60 | 260 | 0.0 | 0.0 | 0.00 | 0.00 | 0.00 | 37 | 1013.3 |
| 20260503192301 | 60 | 26 | 0.0 | 0.0 | 0.00 | 0.00 | 0.00 | 33 | 1013.5 |
| 20260503191801 | 60 | 290 | 0.0 | 0.0 | 0.00 | 0.00 | 0.00 | 35 | 1013.6 |
| 20260503191301 | 60 | 301 | 0.0 | 0.0 | 0.00 | 0.00 | 0.00 | 34 | 1013.7 |
| 20260503190801 | 60 | 245 | 0.0 | 0.0 | 0.00 | 0.00 | 0.00 | 35 | 1013.7 |
| 20260503190300 | 60 | 265 | 0.0 | 0.0 | 0.00 | 0.00 | 0.00 | 34 | 1013.7 |
| 20260503185801 | 60 | 270 | 0.0 | 0.0 | 0.00 | 0.00 | 0.00 | 36 | 1013.8 |
| 20260503185301 | 60 | 249 | 0.0 | 0.0 | 0.00 | 0.00 | 0.00 | 39 | 1013.7 |
| 20260503184800 | 60 | 262 | 0.0 | 0.0 | 0.00 | 0.00 | 0.00 | 37 | 1013.8 |
| 20260503184303 | 59 | 199 | 0.0 | 0.0 | 0.00 | 0.00 | 0.00 | 38 | 1014.0 |
| 20260503184259 | 59 | 255 | 0.0 | 0.0 | 0.00 | 0.00 | 0.00 | 36 | 1013.9 |
| 20260503183258 | 58 | 279 | 0.0 | 0.0 | 0.00 | 0.00 | 0.00 | 36 | 1014.0 |
| 20260503182759 | 58 | 15 | 0.0 | 0.0 | 0.00 | 0.00 | 0.00 | 34 | 1014.1 |
| 20260503182305 | 58 | 54 | 0.0 | 0.0 | 0.00 | 0.00 | 0.00 | 39 | 1014.2 |
| 20260503182259 | 58 | 12 | 0.0 | 0.0 | 0.00 | 0.00 | 0.00 | 39 | 1014.2 |
| 20260503181259 | 58 | 242 | 0.0 | 0.0 | 0.00 | 0.00 | 0.00 | 40 | 1014.2 |
| 20260503180758 | 58 | 24 | 0.0 | 0.0 | 0.00 | 0.00 | 0.00 | 43 | 1014.1 |
| 20260503180308 | 56 | 325 | 0.0 | 3.0 | 0.00 | 0.00 | 0.00 | 42 | 1014.4 |
| 20260503180259 | 57 | 259 | 0.0 | 3.0 | 0.00 | 0.00 | 0.00 | 39 | 1014.3 |
| 20260503175259 | 57 | 24 | 0.0 | 0.0 | 0.00 | 0.00 | 0.00 | 37 | 1014.3 |
| 20260503174759 | 57 | 5 | 0.0 | 0.0 | 0.00 | 0.00 | 0.00 | 40 | 1014.4 |
| 20260503174258 | 56 | 22 | 0.0 | 0.0 | 0.00 | 0.00 | 0.00 | 40 | 1014.5 |
| 20260503173802 | 55 | 346 | 0.0 | 1.0 | 0.00 | 0.00 | 0.00 | 40 | 1014.6 |
| 20260503173758 | 56 | 281 | 0.0 | 1.0 | 0.00 | 0.00 | 0.00 | 43 | 1014.4 |
| 20260503172758 | 56 | 31 | 0.0 | 1.0 | 0.00 | 0.00 | 0.00 | 39 | 1014.6 |
| 20260503172259 | 56 | 251 | 0.0 | 1.0 | 0.00 | 0.00 | 0.00 | 38 | 1014.6 |
| 20260503171802 | 56 | 259 | 0.0 | 0.0 | 0.00 | 0.00 | 0.00 | 42 | 1014.6 |
| 20260503171758 | 56 | 309 | 0.0 | 1.0 | 0.00 | 0.00 | 0.00 | 43 | 1014.7 |
| 20260503170803 | 55 | 20 | 0.0 | 1.0 | 0.00 | 0.00 | 0.00 | 44 | 1014.7 |
| 20260503170759 | 56 | 294 | 0.0 | 0.0 | 0.00 | 0.00 | 0.00 | 44 | 1014.5 |
| 20260503170400 | 55 | 294 | 0.0 | 1.0 | 0.00 | 0.00 | 0.00 | 41 | 1014.6 |
| 20260503150746 | 51 | 5 | 0.0 | 1.0 | 0.00 | 0.00 | 0.00 | 49 | 1015.9 |
| 20260503150246 | 51 | 313 | 0.0 | 1.0 | 0.00 | 0.00 | 0.00 | 50 | 1015.8 |
| 20260503140247 | 48 | 309 | 0.0 | 2.0 | 0.00 | 0.00 | 0.00 | 52 | 1015.9 |
| 20260503130741 | 45 | 335 | 0.0 | 0.0 | 0.00 | 0.00 | 0.00 | 61 | 1015.9 |
| 20260503130347 | 44 | 254 | 0.0 | 1.0 | 0.00 | 0.00 | 0.00 | 62 | 1015.9 |
| 20260503130246 | 45 | 302 | 0.0 | 0.0 | 0.00 | 0.00 | 0.00 | 60 | 1015.9 |
| 20260503130242 | 45 | 312 | 0.0 | 0.0 | 0.00 | 0.00 | 0.00 | 62 | 1015.9 |
| 20260503110736 | 40 | 254 | 0.0 | 1.0 | 0.00 | 0.00 | 0.00 | 70 | 1015.3 |
| 20260503110236 | 40 | 281 | 0.0 | 3.0 | 0.00 | 0.00 | 0.00 | 70 | 1015.2 |
| 20260503100232 | 39 | 269 | 0.0 | 2.0 | 0.00 | 0.00 | 0.00 | 72 | 1014.3 |
| 20260503090231 | 40 | 300 | 0.0 | 0.0 | 0.00 | 0.00 | 0.00 | 71 | 1014.0 |
| 20260503081328 | 41 | 295 | 0.0 | 0.0 | 0.00 | 0.00 | 0.00 | 70 | 1013.7 |
| 20260503080228 | 42 | 261 | 0.0 | 0.0 | 0.00 | 0.00 | 0.00 | 69 | 1013.7 |
| 20260503080224 | 41 | 277 | 0.0 | 0.0 | 0.00 | 0.00 | 0.00 | 70 | 1013.7 |
| 20260503072723 | 42 | 307 | 0.0 | 0.0 | 0.00 | 0.00 | 0.00 | 69 | 1013.3 |
| 20260503072223 | 42 | 276 | 0.0 | 0.0 | 0.00 | 0.00 | 0.00 | 70 | 1013.3 |
| 20260503071723 | 42 | 312 | 0.0 | 0.0 | 0.00 | 0.00 | 0.00 | 69 | 1013.3 |
| 20260503071223 | 43 | 310 | 0.0 | 0.0 | 0.00 | 0.00 | 0.00 | 69 | 1013.3 |
| 20260503070723 | 43 | 288 | 0.0 | 0.0 | 0.00 | 0.00 | 0.00 | 70 | 1013.3 |
| 20260503070223 | 43 | 271 | 0.0 | 0.0 | 0.00 | 0.00 | 0.00 | 70 | 1013.2 |